This is the latest recevied weather packets stored in our database for station/object DB0NU-15. If no packets are shown the sender has not sent any weather packets the latest 10 day(s).
| Time | Temp. | Humidity | Pressure | Rain* | Wind** | Luminosity | Snow |
|---|---|---|---|---|---|---|---|
| 1777943454 | 13.33° C | 80% | 1012.1 hPa | 0.25 mm | - | - | - |
| 1777942850 | 12.78° C | 87% | 1012.1 hPa | 0.25 mm | - | - | - |
| 1777942247 | 13.33° C | 84% | 1012.3 hPa | 0.25 mm | - | - | - |
| 1777941644 | 13.33° C | 80% | 1012.3 hPa | 0 mm | - | - | - |
| 1777941040 | 13.89° C | 78% | 1012.4 hPa | 0 mm | - | - | - |
| 1777940437 | 14.44° C | 75% | 1012.3 hPa | 0 mm | - | - | - |
| 1777939833 | 14.44° C | 75% | 1012.2 hPa | 0 mm | - | - | - |
| 1777939230 | 14.44° C | 74% | 1012.3 hPa | 0 mm | - | - | - |
| 1777938023 | 14.44° C | 74% | 1012.2 hPa | 0 mm | - | - | - |
| 1777936816 | 14.44° C | 76% | 1012.6 hPa | 0 mm | - | - | - |
| 1777936273 | 14.44° C | 77% | 1012.6 hPa | 0 mm | - | - | - |
| 1777935670 | 14.44° C | 77% | 1012.7 hPa | 0 mm | - | - | - |
| 1777935067 | 14.44° C | 77% | 1012.7 hPa | 0 mm | - | - | - |
| 1777934463 | 14.44° C | 78% | 1012.9 hPa | 0 mm | - | - | - |
| 1777933860 | 14.44° C | 77% | 1013 hPa | 0 mm | - | - | - |
| 1777933256 | 14.44° C | 76% | 1013.2 hPa | 0 mm | - | - | - |
| 1777932653 | 14.44° C | 74% | 1013 hPa | 0 mm | - | - | - |
| 1777932050 | 14.44° C | 74% | 1013.2 hPa | 0 mm | - | - | - |
| 1777930239 | 15° C | 73% | 1013.6 hPa | 0 mm | - | - | - |
| 1777929636 | 15.56° C | 70% | 1013.5 hPa | 0 mm | - | - | - |
| 1777929033 | 15.56° C | 69% | 1013.5 hPa | 0 mm | - | - | - |
| 1777928429 | 15.56° C | 69% | 1013.5 hPa | 0 mm | - | - | - |
| 1777927826 | 15.56° C | 69% | 1013.2 hPa | 0 mm | - | - | - |
| 1777927222 | 15.56° C | 69% | 1013.2 hPa | 0 mm | - | - | - |
| 1777926620 | 15.56° C | 69% | 1013.2 hPa | 0 mm | - | - | - |
* Rain latest hour (hover to see other rain measurements)
** Current wind speed in m/s (hover to see current wind gust speed)